Location: Six Mile Lake
(44.9000°N, 79.7170°W)
Time: 00:02:49
(UTC-04:00)

ESTCUBE 1 - Pass Details

Date: 07 July 2022
Orbit: 646 x 657 km, 97.9° (Epoch: 13 August)

Event Time Altitude Azimuth Distance (km) Brightness Sun altitude
Exits shadow 21:56:27 - 103° (ESE) 2,373 ? -7.7°
Reaches altitude 10° 21:57:46 10° 91° (E) 2,051 ? -7.9°
Maximum altitude 22:00:02 14° 60° (ENE) 1,808 ? -8.2°
Drops below altitude 10° 22:02:18 10° 30° (NNE) 2,062 ? -8.5°
Sets 22:05:30 0° 5° (N) 2,981 ? -8.9°
